Regional Weather Roundup
Issued by NWS

Home | Current Version | Previous Version | Graphics & Text | Print | Product List | Glossary On
Versions: 1 2 3 4 5 6 7 8 9 10 11 12 13 14 15 16 17 18 19 20 21 22 23 24 25 26 27 28 29 30 31 32 33 34 35 36 37 38 39 40 41 42 43 44 45 46 47 48 49 50
000
ASUS43 KMPX 242301
RWRMN
WEATHER ROUNDUP FOR MINNESOTA
NATIONAL WEATHER SERVICE TWIN CITIES/CHANHASSEN MN
600 PM CDT FRI OCT 24 2014


NOTE: "FAIR" INDICATES FEW OR NO CLOUDS BELOW 12,000 FEET WITH NO
SIGNIFICANT WEATHER AND/OR OBSTRUCTIONS TO VISIBILITY. N/A MEANS
CURRENT SKY AND/OR WEATHER CONDITIONS ARE NOT AVAILABLE.

MNZ060>063-068>070-250000-
   Twin Cities Metro

CITY           SKY/WX    TMP DP  RH WIND       PRES   REMARKS
TWIN CITIES    MOCLDY    66  53  63 SW6       29.84S
ST PAUL        MOCLDY    60  55  83 SE7       29.85R
CRYSTAL        MOCLDY    66  53  63 S5        29.83R
LAKEVILLE      MOCLDY    61  55  82 CALM      29.85S HAZE
EDEN PRAIRIE   MOCLDY    66  53  63 SW5       29.84R
SOUTH ST PAUL  MOCLDY    62  55  78 SE5       29.85R
LAKE ELMO      FAIR      59  54  82 S6        29.86R
$$
MNZ001>005-007-008-013>017-022>024-027-028-250000-
   Northwest Minnesota

CITY           SKY/WX    TMP DP  RH WIND       PRES   REMARKS
BEMIDJI        PTCLDY    66  42  41 W10       29.75S
HALLOCK        CLEAR     64  28  25 W20G29    29.73R
ROSEAU         CLEAR     66  34  30 W14G20    29.69R
WARROAD        PTCLDY    66  34  30 W18G35    29.68R
THIEF RVR FALL CLEAR    N/A N/A N/A W17G25    29.76R
CROOKSTON      PTCLDY    66  34  30 W21G30    29.79R
FOSSTON        PTCLDY    64  37  36 W16G22    29.78R
DETROIT LAKES  PTCLDY    68  43  40 SW7       29.81S
MOORHEAD       PTCLDY    73  30  20 W16G23    29.80R
PARK RAPIDS    MOCLDY    62  41  46 SW9       29.79R
MAHNOMEN       FAIR      69  43  38 W13       29.78R
$$
MNZ006-009>011-018-025>026-250000-
   North Central Minnesota

CITY           SKY/WX    TMP DP  RH WIND       PRES   REMARKS
BAUDETTE       PTCLDY    68  39  34 W8G22     29.65R
FLAG ISLAND    PTCLDY    66  32  28 W21G36    29.61R
INTL FALLS     PTCLDY    66  41  40 SW12G20   29.64F
WASKISH        CLEAR     63  46  55 SW14G20   29.71R
BIG FORK       CLEAR     66  39  37 SW8       29.72S
LONGVILLE      PTCLDY    66  37  34 SW6       29.77S
GRAND RAPIDS   CLEAR     66  39  37 SW7       29.75R
CRANE LAKE     MOCLDY    64  39  39 CALM      29.68S
ORR            PTCLDY    66  36  32 CALM      29.67R
COOK           CLEAR     64  39  39 SW5       29.71S
WALKER         FAIR      69  39  33 W12G21    29.76S
$$
MNZ012-019>021-037-250000-
   Northeast Minnesota

CITY           SKY/WX    TMP DP  RH WIND       PRES   REMARKS
DULUTH         PTCLDY    64  50  60 SW12      29.75S
ELY            PTCLDY    64  39  39 SW9       29.70S
HIBBING        CLEAR     67  39  35 SW5       29.74R
EVELETH        CLEAR     63  39  42 SW9       29.74R
DULUTH HARBOR  CLEAR     64  54  68 SW14      29.75R
TWO HARBORS    CLEAR     64  41  42 SW8       29.72R
SILVER BAY     CLEAR     63  52  67 S6        29.71R
GRAND MARAIS     N/A     49  46  90 W3        29.71F
G MARAIS ARPRT PTCLDY    52  45  76 S6        29.73S
$$
MNZ029>031-032-039>041-046>048-054>057-064-250000-
   West Central Minnesota

CITY           SKY/WX    TMP DP  RH WIND       PRES   REMARKS
FERGUS FALLS   MOCLDY    70  37  30 W9        29.81S
WHEATON        PTCLDY    70  43  37 W7        29.85S
MORRIS         MOCLDY    70  45  40 W7        29.84R
ALEXANDRIA     MOCLDY    67  42  40 W7        29.84S
ELBOW LAKE     FAIR      71  44  37 W8        29.83R
WADENA         MOCLDY    64  43  45 SW6       29.81R
GLENWOOD       MOCLDY    68  41  37 W7        29.85R
APPLETON       PTCLDY    72  37  28 W6        29.85R
BENSON         MOCLDY    70  45  40 W6        29.85R
ORTONVILLE     PTCLDY    73  39  29 W3        29.86R
MADISON        PTCLDY    73  37  27 W7        29.87R
WILLMAR          N/A     70  37  30 SW5       29.87R
$$
MNZ033>034-036-042>043-049>051-058-059-250000-
   Central Minnesota

CITY           SKY/WX    TMP DP  RH WIND       PRES   REMARKS
ST CLOUD       MOCLDY    67  49  52 S6        29.82S
SAUK CENTRE    FAIR      66  45  46 W7        29.83S
PAYNESVILLE    MOCLDY    65  43  44 S7        29.84S
AITKIN         PTCLDY    66  43  42 SW5       29.77S
PINE RIVER     MOCLDY    66  43  42 SW6       29.82R
BRAINERD       PTCLDY    62  40  44 W6        29.80R
STAPLES        MOCLDY    63  39  42 SW6       29.81S
LONG PRAIRIE   FAIR      64  43  45 SW5       29.83S
LITTLE FALLS   MOCLDY    64  37  36 W3        29.82S
LITCHFIELD     MOCLDY    70  43  37 CALM      29.86R
BUFFALO        MOCLDY    65  52  61 S3        29.84F
MAPLE LAKE     MOCLDY    66  54  64 S3        29.84S
$$
MNZ037-044-045-052-053-250000-
   East Central Minnesota

CITY           SKY/WX    TMP DP  RH WIND       PRES   REMARKS
PRINCETON      MOCLDY    64  52  63 S3        29.82S
MORA           MOCLDY    59  48  67 SW3       29.83R
CAMBRIDGE      MOCLDY    64  52  63 S3        29.81R
RUSH CITY      MOCLDY    61  52  71 CALM      29.83R
MOOSE LAKE     PTCLDY    61  50  67 SW5       29.77R
HINCKLEY       FAIR      61  54  77 CALM      29.81R
CLOQUET        CLEAR     63  50  63 SW8       29.77R
MCGREGOR       PTCLDY    63  48  59 S5        29.78S
$$
MNZ071>073-080-081-089-090-097-098-250000-
   Southwest Minnesota

CITY           SKY/WX    TMP DP  RH WIND       PRES   REMARKS
MONTEVIDEO     PTCLDY    73  41  31 NW3       29.87R
GRANITE FALLS  MOCLDY    71  40  32 CALM      29.88R
CANBY          CLEAR     69  40  34 W7        29.90R
MARSHALL       CLEAR     70  39  32 NW9       29.88R
REDWOOD FALLS  MOCLDY    71  42  35 W3        29.86R
OLIVIA         MOCLDY    70  46  43 W3        29.86R
PIPESTONE      CLEAR     72  37  28 NW5       29.92R
WINDOM         PTCLDY    70  37  30 W6        29.90R
WORTHINGTON    CLEAR     68  39  34 NW6       29.92R
JACKSON        PTCLDY    70  36  28 NW7       29.91R
TRACY          PTCLDY    73  39  29 W6        29.89R
SLAYTON        CLEAR     69  37  30 CALM      29.92R
$$
MNZ065>067-074>077-082>085-091>093-250000-
   South Central Minnesota

CITY           SKY/WX    TMP DP  RH WIND       PRES   REMARKS
MANKATO        MOCLDY    66  50  55 W6        29.87S
NEW ULM        MOCLDY    68  50  52 W7        29.87R
ST JAMES       MOCLDY    72  43  35 W5        29.89R
FAIRMONT       MOCLDY    72  12  10 NW7       29.89R
GLENCOE        MOCLDY    69  54  58 CALM      29.85R
FARIBAULT      MOCLDY    64  54  68 SW3       29.87R
OWATONNA       MOCLDY    64  54  68 W3        29.87S
WASECA         MOCLDY    63  46  55 W5        29.89R
ALBERT LEA     MOCLDY    66  55  68 CALM      29.87S
$$
MNZ078>079-086>088-094>096-250000-
   Southeast Minnesota

CITY           SKY/WX    TMP DP  RH WIND       PRES   REMARKS
ROCHESTER      CLOUDY    59  56  89 SW5       29.90S FOG
RED WING       CLOUDY    57  55  94 CALM      29.86S
STANTON        MOCLDY    61  55  79 S3        29.84S
DODGE CENTER   MOCLDY    57  55  94 S5        29.88S FOG
WINONA         CLOUDY    61  55  82 SW3       29.89R
AUSTIN         MOCLDY    59  57  94 CALM      29.89R FOG
PRESTON        CLOUDY    57  55  91 SW5       29.91R
$$
ABBREVIATIONS USED IN REMARKS
   TC - TEMPERATURES IN CELSIUS
  WCI - WIND CHILL INDEX
   HX - HEAT INDEX
  VSB - VISIBILITY
$$



USA.gov is the U.S. government's official web portal to all federal, state and local government web resources and services.